{"data":{"norad_id":64829,"epoch":"2026-09-21T20:55:49.662048Z","epoch_age_seconds":52696,"freshness":"FRESH","line1":"1 64829U 25151P   26264.87210257  .00001801  00000+0  26523-3 0  9995","line2":"2 64829  51.9013 148.0876 0001185  92.7300 267.3798 14.79938544 65614","mean_motion":14.79938544,"eccentricity":0.0001185,"inclination_deg":51.9013,"raan_deg":148.0876,"arg_perigee_deg":92.73,"mean_anomaly_deg":267.3798,"bstar":0.00026523,"rev_number":6561,"period_min":97.3013376696,"perigee_km":628.68772106274,"apogee_km":630.34853532812,"semimajor_km":7007.6551281954,"source":"CELESTRAK","updated_at":"2026-09-22T09:00:29.976770Z"}}